EHI
5 5 5 4 4 2 1 0 0 1 0 0 0 0 0 0 0 0 0 0 0 0 0 0 0 0 0 0 0 0 0 0 0 0 0 0 0 0
6 6 6 6 5 5 3 1 1 2 1 1 1 0 0 0 0 0 0 0 0 0 0 0 0 0 0 0 0 0 0 0 0 0 0 0 0 0
6 6 6 6 6 6 5 3 3 3 3 2 2 1 0 0 0 0 0 0 0 0 0 0 0 0 0 0 0 0 0 0 0 0 0 0 0 0
6 6 6 6 6 6 5 4 3 3 3 3 2 1 0 0 0 0 0 0 0 0 0 0 0 0 0 0 0 0 0 0 0 0 0 0 0 0
6 5 5 6 7 6 4 4 4 3 3 3 3 2 2 1 0 0 0 0 0 0 0 0 0 0 0 0 0 0 0 0 0 0 0 0 0 0
5 5 5 5 6 5 4 4 4 4 3 3 3 3 3 2 1 0 0 0 0 0 0 0 0 0 0 0 0 0 0 0 0 0 0 0 0 0
5 5 5 5 5 4 3 3 4 3 3 3 2 2 2 2 1 0 0 0 0 0 0 0 0 0 0 0 0 0 0 0 0 0 0 0 0 0
4 4 3 3 3 3 3 3 3 2 2 1 1 1 1 1 1 1 0 0 0 0 0 0 0 0 0 0 0 0 0 0 0 0 0 0 0 0
1 2 1 1 1 2 2 2 1 1 1 0 0 0 0 1 2 2 1 0 0 0 0 0 0 0 0 0 0 0 0 0 0 0 0 0 0 0
0 1 1 0 0 1 1 1 0 0 0 0 0 0 0 1 2 2 1 0 0 0 0 0 0 0 0 0 0 0 0 0 0 0 0 0 0 0
0 0 1 0 0 0 0 0 0 0 0 0 0 0 0 0 1 1 0 0 0 0 0 0 0 0 0 0 0 0 0 0 0 0 0 0 0 0
0 0 0 0 0 0 0 0 0 0 0 0 0 0 0 0 0 0 0 0 0 0 0 0 0 0 0 0 0 0 0 0 0 0 0 0 0 0
0 0 0 0 0 0 0 0 0 0 0 0 0 0 0 0 0 0 0 0 0 0 0 0 0 0 0 0 0 0 0 0 0 0 0 0 0 0
0 0 0 0 0 0 0 0 0 0 0 0 0 0 0 0 0 0 0 0 0 0 0 0 0 0 0 0 0 0 0 0 0 0 0 0 0 0
0 0 0 0 0 0 0 0 0 0 0 0 0 0 0 0 0 0 0 0 0 0 0 0 0 0 0 0 0 0 0 0 0 0 0 0 0 0
0 0 0 0 0 0 0 0 0 0 0 0 0 0 0 0 0 0 0 0 0 0 0 0 0 0 0 0 0 0 0 0 0 0 0 0 0 0
0 0 0 0 0 0 0 0 0 0 0 0 0 0 0 0 0 0 0 0 0 0 0 0 0 0 0 0 0 0 0 0 0 0 0 0 0 0
0 0 0 0 0 0 0 0 0 0 0 0 0 0 0 0 0 0 0 0 0 0 0 0 0 0 0 0 0 0 0 0 0 0 0 0 0 0
0 0 0 0 0 0 0 0 0 0 0 0 0 0 0 0 0 0 0 0 0 0 0 0 0 0 0 0 0 0 0 0 0 0 0 0 0 0
0 0 0 0 0 0 0 0 0 0 0 0 0 0 0 0 0 0 0 0 0 0 0 0 0 0 0 0 0 0 0 0 0 0 0 0 0 0
0 0 0 0 0 0 0 0 0 0 0 0 0 0 0 0 0 0 0 0 0 0 0 0 0 0 0 0 0 0 0 0 0 0 0 0 0 0
0 0 0 0 0 0 0 0 0 0 0 0 0 0 0 0 0 0 0 0 0 0 0 0 0 0 0 0 0 0 0 0 0 0 0 0 0 0
0 0 0 0 0 0 0 0 0 0 0 0 0 0 0 0 0 0 0 0 0 0 0 0 0 0 0 0 0 0 0 0 0 0 0 0 0 0
Wind_Speed
0 0 1 0 1 1 1 2 3 1 0 1 2 2 2 3 4 4 4 6 7 6 5 4 4 4 4 4 4 4 4 3 3 3 3 3 3 2
2 2 2 1 1 1 1 1 2 3 2 1 1 1 2 4 6 4 5 8 8 7 7 7 7 6 6 6 5 5 5 4 4 3 3 4 4 4
3 3 3 2 2 2 2 2 2 3 4 1 2 2 4 4 4 4 4 4 5 9 9 9 9 8 8 7 7 6 6 6 6 6 5 5 5 5
4 4 4 3 3 3 3 3 3 3 4 4 2 2 3 3 3 4 4 5 4 8 9 9 8 8 8 7 6 6 6 6 7 7 6 6 6 5
4 5 4 4 4 3 4 3 3 4 3 4 2 2 2 2 3 4 5 3 4 5 7 7 7 7 7 6 6 5 5 5 6 6 6 6 6 6
5 5 4 4 4 4 4 4 4 5 4 4 3 2 2 2 3 3 3 2 3 4 5 5 5 6 6 5 5 5 5 4 4 5 5 5 5 5
5 5 6 9 9 6 5 4 4 4 4 4 3 3 2 2 2 1 2 2 2 2 2 3 3 3 4 5 5 5 4 4 4 3 3 3 4 4
5 4 6 8 10 11 11 9 6 5 4 4 3 2 1 1 1 2 2 2 1 2 1 2 2 2 2 2 3 4 4 4 4 3 3 3 3 3
4 4 5 6 7 6 9 12 10 10 7 5 4 2 2 1 2 2 2 2 1 1 1 1 2 2 2 2 3 3 4 4 4 4 4 3 3 4
4 4 4 4 5 6 6 7 6 5 5 4 3 2 2 2 3 3 2 2 1 2 2 1 2 2 2 2 3 3 3 4 5 5 5 4 4 4
5 5 5 5 7 8 7 6 6 5 6 7 6 5 6 5 4 3 3 3 2 2 1 1 1 2 2 2 3 3 3 4 5 5 5 5 4 3
5 5 7 7 7 7 5 5 5 3 3 5 5 6 5 5 6 3 3 2 1 1 2 1 1 1 2 2 2 2 2 3 4 5 5 5 4 2
3 3 3 7 8 7 6 4 3 2 2 3 3 3 4 4 4 3 2 2 2 1 2 1 0 1 0 2 3 2 2 2 2 3 4 5 4 1
3 2 2 6 7 8 6 6 7 6 4 4 3 3 2 2 2 2 2 2 1 1 1 1 1 1 0 1 3 3 2 2 1 2 2 4 4 5
2 4 5 6 6 6 7 7 6 4 3 3 2 1 1 1 2 2 3 3 3 3 2 1 1 1 1 1 2 3 3 3 2 2 2 2 2 2
3 5 6 7 6 5 5 4 3 3 3 2 1 1 2 2 2 2 2 2 3 4 4 3 1 1 0 1 1 2 2 3 3 2 2 2 3 2
3 3 4 4 4 3 3 3 3 3 3 2 2 2 2 2 2 2 2 2 2 2 4 4 3 2 1 1 1 3 3 3 3 2 1 2 3 3
5 3 2 2 2 2 2 2 2 2 2 2 2 2 2 2 2 2 2 1 1 2 2 3 3 4 4 3 2 2 3 3 3 2 1 2 4 4
4 2 2 1 1 1 1 2 1 1 1 2 2 2 1 2 2 2 2 2 2 2 2 2 2 2 2 4 6 2 2 3 3 2 2 2 3 4
2 2 2 1 1 1 1 1 1 2 2 2 2 2 2 1 1 1 1 1 2 2 3 3 2 1 2 3 4 5 4 2 2 3 3 2 3 5
1 1 1 1 1 1 1 1 1 1 1 1 2 2 1 1 1 1 1 2 2 2 2 3 4 5 2 1 2 4 5 4 3 3 2 2 3 3
2 2 1 1 2 2 2 2 1 1 1 2 2 2 2 1 1 2 1 1 2 2 3 3 4 3 2 1 3 4 5 5 5 5 4 4 2 2
2 2 1 1 1 2 2 2 2 1 1 1 1 2 2 2 2 2 2 2 2 2 3 3 3 2 2 2 3 3 4 4 3 3 4 6 6 6
Wind_Direction
16 93 100 49 116 141 158 161 156 154 33 28 34 35 66 70 69 70 73 77 76 72 69 66 69 73 75 75 72 60 51 45 37 28 19 23 19 11
51 58 49 36 52 55 73 88 133 149 133 57 53 47 70 77 70 66 72 75 72 73 70 67 68 69 68 70 73 72 68 62 51 47 42 45 47 48
44 57 46 47 53 44 50 68 83 110 120 73 50 58 61 72 64 62 65 59 63 72 72 68 66 65 63 61 61 64 64 64 60 57 57 59 54 47
43 52 42 52 52 45 57 70 80 91 118 114 60 50 63 77 76 73 70 71 69 73 73 71 67 64 61 58 55 55 56 57 58 56 54 52 49 45
51 55 43 55 53 51 62 70 76 81 87 107 85 57 63 68 68 67 66 55 65 73 70 67 63 61 57 55 55 52 50 50 51 51 49 48 46 43
55 56 50 58 62 65 67 71 85 85 85 93 85 64 61 54 69 69 56 33 42 53 49 54 50 50 47 46 52 53 48 48 47 45 42 38 37 36
59 57 63 69 65 66 73 77 89 89 89 92 87 70 52 53 59 70 90 56 30 34 34 26 24 19 17 23 36 43 40 38 38 38 35 30 26 22
70 58 64 60 61 62 66 71 85 99 104 98 88 93 77 75 86 99 110 84 12 326 52 9 25 5 348 1 13 22 23 25 25 17 11 8 2 0
72 68 71 63 59 63 62 60 60 68 88 114 112 125 131 155 126 103 105 112 178 269 91 7 345 328 316 356 4 9 12 9 8 6 357 347 342 341
68 77 81 62 64 74 72 62 53 48 59 79 104 112 117 135 140 146 145 107 41 2 79 73 324 316 320 329 335 345 353 359 359 1 360 355 348 345
52 64 76 71 67 78 79 72 58 41 53 65 67 66 66 73 90 92 78 79 43 341 3 95 327 329 329 324 328 337 336 339 342 346 351 348 346 345
49 48 59 70 69 75 84 86 76 47 49 50 45 39 43 48 56 84 121 115 111 329 316 74 355 17 348 322 323 332 332 326 326 329 333 335 338 346
63 42 38 65 69 69 77 83 92 87 65 68 57 43 35 30 25 32 62 119 125 240 273 124 61 25 107 303 312 307 309 304 313 314 317 318 321 317
82 55 49 65 66 66 68 67 67 64 61 60 57 45 36 19 2 11 27 42 89 197 278 133 143 176 116 320 302 308 308 298 291 294 298 310 309 303
83 77 65 61 60 58 59 62 63 65 66 65 55 19 340 340 8 13 14 16 10 3 3 14 128 164 148 227 277 292 301 302 296 293 294 291 287 299
62 56 51 49 50 44 42 43 47 69 87 83 53 6 6 20 21 19 21 6 14 349 348 2 16 105 28 282 260 287 283 286 295 292 286 296 294 281
81 58 48 45 43 35 32 32 36 45 52 47 55 44 28 26 9 9 29 32 31 342 336 343 352 3 227 214 291 292 291 289 282 283 292 297 289 281
95 85 77 73 70 63 61 42 36 39 36 50 53 46 35 27 11 4 21 35 15 333 323 322 343 357 355 328 258 263 291 285 291 296 274 278 289 287
94 101 109 107 94 85 85 81 55 26 41 55 49 29 23 21 22 8 3 4 349 330 321 326 352 19 350 313 305 287 250 281 297 299 281 254 265 280
99 120 128 122 108 103 96 87 68 44 39 38 31 19 17 22 18 4 357 347 334 335 335 333 325 291 241 253 273 294 288 251 264 280 282 283 279 290
120 124 133 130 121 115 105 90 82 62 34 25 15 7 5 16 4 345 342 349 358 344 327 305 289 296 275 0 330 309 299 287 253 240 252 281 301 310
142 140 135 128 124 116 110 105 82 55 28 21 2 355 354 13 356 334 336 334 316 300 295 297 315 341 5 344 301 294 299 308 310 303 271 232 219 253
153 139 126 115 111 112 114 111 99 65 29 10 360 351 355 351 336 329 323 320 316 318 319 318 325 335 319 296 290 292 302 306 310 322 310 302 291 283